Location: Ellingshausen
(50.5460°N, 10.4723°E)
Time: 23:14:24
(UTC+00:00)

Cosmos 1862 Rocket - Pass Details

Date: 18 January 2026
Orbit: 596 x 627 km, 82.5° (Epoch: 17 February)

Event Time Altitude Azimuth Distance (km) Brightness Sun altitude
Exits shadow 05:59:53 - 338° (NNW) 2,505 6.3 -10.9°
Reaches altitude 10° 06:01:19 10° 332° (NNW) 1,966 5.7 -10.7°
Maximum altitude 06:05:08 31° 270° (W) 1,074 4.3 -10.1°
Drops below altitude 10° 06:08:54 10° 209° (SSW) 1,938 6.0 -9.6°
Sets 06:11:16 0° 198° (SSW) 2,832 7.0 -9.2°
